This demonstration page uses our WeatherBlox Daily Observations layout. Learn more.

Left ArrowRight Arrow

40.92945, -100.16068

Hourly Observations for April 16, 2020

Temp ( °F °C ) Dew Point ( °F °C ) Humidity (%) Winds ( mph kmh ) Pressure ( in mb ) Visibility ( mi km ) Precip ( " mm )
12:15 am 00:15 Clear 36 2 35 1.5 97 97 NNE 13 20 30.18 1022 10 16 0.00 0.00
12:35 am 00:35 Mostly Cloudy 37 2.6 36 2 96 96 NE 12 19 30.18 1022 10 16 0.00 0.00
12:55 am 00:55 Cloudy 38 3.1 36 2.2 94 94 NNE 16 26 30.18 1022 10 16 0.00 0.00
1:15 am 01:15 Cloudy 38 3.2 36 2.2 93 93 NE 15 24 30.18 1022 10 16 0.00 0.00
1:35 am 01:35 Cloudy 37 3 36 2.1 94 94 NE 13 20 30.18 1022 10 16 0.00 0.00
1:55 am 01:55 Cloudy 38 3.2 36 2.3 94 94 NE 12 19 30.19 1022 10 16 0.00 0.00
2:15 am 02:15 Cloudy 38 3.3 37 2.5 95 95 NE 14 22 30.18 1022 10 16 0.00 0.00
2:35 am 02:35 Cloudy 37 3 36 2.4 96 96 NE 15 24 30.18 1022 10 16 0.00 0.00
2:55 am 02:55 Cloudy 37 2.6 36 2.1 97 97 NE 15 24 30.18 1022 10 16 0.00 0.00
3:15 am 03:15 Cloudy with Mist and Fog 36 2 36 2 100 100 NE 14 22 30.19 1022 3 5 0.00 0.00
3:35 am 03:35 Cloudy with Mist and Fog 36 2 35 1.7 98 98 ENE 17 28 30.20 1023 5 8 0.00 0.00
3:55 am 03:55 Cloudy with Mist and Fog 35 1.7 35 1.5 99 99 ENE 14 22 30.21 1023 5 8 0.00 0.00
4:15 am 04:15 Cloudy 35 1.8 35 1.5 98 98 ENE 16 26 30.20 1023 7 11 0.00 0.00
4:35 am 04:35 Cloudy 35 1.8 34 1.2 96 96 ENE 14 22 30.20 1023 10 16 0.00 0.00
4:55 am 04:55 Cloudy 35 1.6 33 0.5 93 93 ENE 13 20 30.21 1023 10 16 0.00 0.00
5:15 am 05:15 Cloudy 35 1.5 33 0.6 94 94 NE 13 20 30.20 1023 10 16 0.00 0.00
5:35 am 05:35 Cloudy 34 1.3 32 0.1 92 92 ENE 15 24 30.20 1023 10 16 0.00 0.00
5:55 am 05:55 Cloudy 34 1 31 -0.4 90 90 ENE 17 28 30.20 1023 10 16 0.00 0.00
6:15 am 06:15 Cloudy 33 0.7 31 -0.6 91 91 ENE 16 26 30.21 1023 10 16 0.00 0.00
6:35 am 06:35 Cloudy 33 0.5 30 -1 90 90 ENE 14 22 30.21 1023 10 16 0.00 0.00
6:55 am 06:55 Cloudy 32 0.2 30 -1.3 90 90 ENE 15 24 30.23 1024 10 16 0.00 0.00
7:15 am 07:15 Cloudy 32 0.1 29 -1.5 89 89 ENE 15 24 30.24 1024 10 16 0.00 0.00
7:35 am 07:35 Cloudy 32 0 29 -1.6 89 89 ENE 16 26 30.23 1024 10 16 0.00 0.00
7:55 am 07:55 Cloudy 32 0 29 -1.6 89 89 ENE 17 28 30.24 1024 10 16 0.00 0.00
8:15 am 08:15 Cloudy with Light Snow 32 0 29 -1.5 90 90 ENE 16 26 30.24 1024 3 5 0.00 0.00
8:35 am 08:35 Cloudy with Light Snow 32 -0.2 30 -1.1 94 94 ENE 16 26 30.25 1024 3 4 0.00 0.00
8:55 am 08:55 Cloudy with Light Snow 31 -0.3 30 -1.1 94 94 ENE 15 24 30.25 1024 2 2 0.00 0.00
9:15 am 09:15 Cloudy with Light Snow 32 -0.2 30 -0.9 95 95 ENE 16 26 30.24 1024 2 3 0.00 0.00
9:35 am 09:35 Cloudy with Snow 32 -0.2 31 -0.7 96 96 ENE 18 30 30.23 1024 0 0 0.00 0.00
9:55 am 09:55 Cloudy with Light Snow 32 0 31 -0.5 96 96 ENE 17 28 30.22 1023 1 2 0.00 0.00
10:15 am 10:15 Windy with Snow Likely 32 0 31 -0.5 96 96 ENE 20 31 30.22 1023 1 2 0.01 0.25
10:35 am 10:35 Cloudy with Light Snow 32 0 31 -0.4 97 97 ENE 18 30 30.22 1023 1 2 0.01 0.25
10:55 am 10:55 Cloudy with Light Snow 32 0.1 32 -0.2 98 98 ENE 18 30 30.21 1023 1 1 0.01 0.25
11:15 am 11:15 Windy with Snow Likely 33 0.3 32 -0.1 97 97 ENE 21 33 30.19 1022 1 1 0.01 0.25
11:35 am 11:35 Cloudy with Light Snow 33 0.3 32 -0.2 96 96 ENE 17 28 30.19 1022 1 2 0.01 0.25
11:55 am 11:55 Windy with Snow Likely 33 0.3 32 -0.2 96 96 E 21 33 30.19 1022 5 8 0.01 0.25
12:15 pm 12:15 Windy with Snow Likely 33 0.4 31 -0.4 94 94 ENE 20 31 30.19 1022 5 8 0.00 0.00
12:35 pm 12:35 Cloudy with Light Snow 33 0.3 32 -0.2 96 96 E 17 28 30.19 1022 2 2 0.00 0.00
12:55 pm 12:55 Cloudy with Light Snow 33 0.5 32 0 96 96 ENE 14 22 30.19 1022 1 2 0.00 0.00
1:15 pm 13:15 Cloudy with Light Snow 32 0.2 31 -0.3 96 96 ENE 16 26 30.21 1023 1 2 0.00 0.00
1:35 pm 13:35 Cloudy with Light Snow 32 0.1 32 -0.2 98 98 NE 15 24 30.21 1023 1 2 0.01 0.25
1:55 pm 13:55 Cloudy with Light Snow 32 0 31 -0.4 97 97 NE 15 24 30.21 1023 2 3 0.01 0.25
2:15 pm 14:15 Cloudy with Light Snow 32 0 32 -0.2 99 99 NE 17 28 30.21 1023 2 3 0.00 0.00
2:35 pm 14:35 Cloudy with Light Snow 32 0 32 -0.2 99 99 NE 17 28 30.22 1023 2 2 0.01 0.25
2:55 pm 14:55 Cloudy with Light Snow 32 0 31 -0.5 96 96 NE 17 28 30.22 1023 1 2 0.01 0.25
3:15 pm 15:15 Cloudy with Light Snow 32 -0.1 31 -0.7 96 96 NE 16 26 30.23 1024 2 3 0.00 0.00
3:35 pm 15:35 Cloudy with Light Snow 32 0 31 -0.5 96 96 NE 16 26 30.24 1024 2 3 0.01 0.25
3:55 pm 15:55 Cloudy with Light Snow 32 0 31 -0.5 96 96 NE 16 26 30.23 1024 2 3 0.02 0.51
4:15 pm 16:15 Windy with Snow Likely 32 0 30 -1.1 92 92 NE 21 33 30.23 1024 3 5 0.00 0.00
4:35 pm 16:35 Cloudy with Light Snow 32 0 30 -1.1 92 92 NE 18 30 30.23 1024 5 8 0.00 0.00
4:55 pm 16:55 Windy with Snow Likely 32 0 30 -1.2 92 92 NNE 22 35 30.24 1024 5 8 0.00 0.00
5:15 pm 17:15 Cloudy with Light Snow 32 -0.1 29 -1.5 90 90 NE 18 30 30.24 1024 7 11 0.00 0.00
5:35 pm 17:35 Cloudy 32 -0.2 29 -1.6 90 90 NE 20 31 30.24 1024 10 16 0.00 0.00
5:55 pm 17:55 Cloudy 32 -0.2 30 -1.3 92 92 NE 15 24 30.26 1025 10 16 0.00 0.00
6:15 pm 18:15 Cloudy with Light Snow 32 -0.2 30 -1.2 93 93 NE 17 28 30.25 1024 3 5 0.01 0.25
6:35 pm 18:35 Cloudy with Light Snow 32 -0.1 30 -1.1 93 93 NNE 14 22 30.28 1025 2 3 0.01 0.25
6:55 pm 18:55 Cloudy with Light Snow 32 -0.1 30 -1.1 93 93 NNE 15 24 30.29 1026 3 4 0.01 0.25
7:15 pm 19:15 Cloudy with Light Snow 32 -0.2 30 -1.1 94 94 NNE 15 24 30.29 1026 2 3 0.00 0.00
7:35 pm 19:35 Cloudy with Light Snow 31 -0.5 30 -1.2 95 95 NNE 14 22 30.30 1026 2 2 0.01 0.25
7:55 pm 19:55 Cloudy with Light Snow 31 -0.5 30 -1 96 96 NNE 7 11 30.30 1026 3 5 0.01 0.25
8:15 pm 20:15 Cloudy with Mist and Fog 31 -0.5 30 -1.3 94 94 NNE 15 24 30.29 1026 5 8 0.00 0.00
8:35 pm 20:35 Cloudy with Light Snow 31 -0.5 30 -1 96 96 NNE 13 20 30.30 1026 3 5 0.00 0.00
8:55 pm 20:55 Cloudy with Light Snow 31 -0.5 30 -1 96 96 N 14 22 30.30 1026 3 5 0.00 0.00
9:15 pm 21:15 Cloudy 31 -0.7 29 -1.8 92 92 NNE 12 19 30.32 1027 10 16 0.00 0.00
9:35 pm 21:35 Cloudy 30 -1 28 -2 93 93 N 13 20 30.33 1027 10 16 0.00 0.00
9:55 pm 21:55 Cloudy 30 -1 28 -2 93 93 N 8 13 30.35 1028 10 16 0.00 0.00
10:15 pm 22:15 Cloudy 30 -1 28 -2 93 93 NNE 8 13 30.35 1028 10 16 0.00 0.00
10:35 pm 22:35 Cloudy 30 -1 28 -2 93 93 NNE 6 9 30.35 1028 10 16 0.00 0.00
10:55 pm 22:55 Cloudy 30 -1 28 -2 93 93 N 6 9 30.36 1028 10 16 0.00 0.00
11:15 pm 23:15 Cloudy 30 -1 29 -1.9 94 94 N 8 13 30.36 1028 10 16 0.00 0.00
11:35 pm 23:35 Cloudy 29 -1.5 28 -2.2 95 95 N 6 9 30.36 1028 10 16 0.00 0.00
11:55 pm 23:55 Cloudy 29 -1.7 28 -2.5 94 94 N 7 11 30.35 1028 10 16 0.00 0.00

Powered by AerisWeather